Theta_e
304 311 317 318 312 310 311 309 310 314 314 311 311 312 312 310 314 315 306 307 309 310 309 309 308 307 307 307 311 326 330 333 339 339 337 336 335 331 327 325 332 336 337 336 336 333 332 331 333
306 314 317 315 307 307 306 307 310 313 311 311 311 310 310 309 306 306 306 307 308 309 309 308 308 307 306 306 306 306 313 327 329 334 337 337 336 335 331 324 329 334 337 336 336 336 334 333 332
307 314 314 309 306 306 306 306 309 306 309 307 307 307 308 307 307 306 307 307 307 308 308 308 306 306 305 305 305 305 305 306 318 326 328 336 337 337 335 329 325 332 335 336 335 335 335 334 333
309 313 307 308 308 306 306 306 306 304 305 306 307 306 306 307 307 307 307 308 308 308 308 308 306 305 305 304 305 305 305 305 304 307 321 327 335 337 336 335 328 325 331 335 336 335 334 334 333
310 309 303 304 303 305 303 304 305 304 304 304 305 305 304 306 306 307 307 308 308 307 307 305 305 304 304 304 304 304 305 305 305 304 305 317 326 333 336 336 334 330 328 330 332 332 334 335 333
306 302 301 302 301 302 302 304 304 303 303 303 304 303 304 305 306 306 305 305 306 306 304 304 303 303 303 303 304 304 304 304 305 305 304 304 313 325 330 337 336 334 330 330 331 331 333 335 333
302 299 300 300 301 302 303 303 302 302 302 303 304 302 302 303 304 304 304 304 303 303 303 303 303 303 303 303 303 303 303 302 302 303 304 304 304 311 323 327 336 335 334 331 331 332 330 332 333
303 299 300 299 301 303 302 302 302 303 302 303 304 302 302 304 303 303 303 303 302 302 302 302 302 303 302 302 302 301 301 301 301 301 302 303 303 303 308 322 325 334 334 334 332 331 332 334 332
303 301 300 302 300 303 301 301 302 302 302 303 304 303 303 304 303 303 303 303 302 302 302 302 302 302 301 300 300 300 300 300 300 300 300 301 301 302 303 306 319 321 331 334 334 332 332 331 336
301 299 300 300 299 301 301 301 302 302 301 302 303 303 303 303 303 303 303 303 302 302 302 302 301 301 300 300 299 299 299 299 299 299 299 299 300 301 301 302 305 315 321 327 330 333 333 333 331
300 300 299 302 301 301 301 301 302 300 300 302 304 304 303 303 302 302 302 302 302 301 301 301 300 300 299 299 298 298 298 298 298 298 298 298 299 299 300 300 301 304 311 318 325 330 332 333 333
301 301 302 302 303 301 300 301 300 300 303 304 303 303 303 303 303 303 302 302 301 301 301 300 300 299 299 298 297 297 298 298 298 298 298 298 298 298 298 299 300 300 303 307 314 322 330 331 332
301 301 301 302 301 302 301 300 300 301 303 303 303 302 302 303 302 302 302 301 301 301 300 300 299 299 298 298 298 297 296 297 297 298 298 298 298 298 298 298 299 299 300 303 305 311 317 329 331
301 301 301 302 301 301 300 299 299 303 304 303 302 302 302 302 302 302 302 302 301 301 300 299 299 298 298 298 298 297 297 296 296 296 297 297 297 297 298 298 298 298 299 300 303 304 309 317 329
301 300 299 299 300 300 300 299 298 302 302 303 303 303 302 302 302 302 301 301 300 299 298 298 298 297 297 297 297 297 296 296 295 296 297 297 296 296 297 297 298 298 298 298 300 302 304 308 317
301 300 301 301 299 299 300 300 301 302 301 301 302 302 302 302 302 301 301 300 299 298 297 297 296 296 296 296 296 296 296 295 296 296 296 296 296 296 296 297 297 297 298 298 298 301 302 305 308
299 300 300 301 299 299 299 301 301 301 300 302 302 302 302 301 301 301 300 299 298 297 296 296 295 295 296 296 296 295 295 295 295 295 295 295 295 296 296 296 297 297 297 297 297 298 301 303 305
302 300 300 300 300 299 299 299 300 301 299 300 300 301 300 300 300 299 299 298 297 296 296 295 295 295 295 295 294 294 295 294 294 294 294 295 295 295 296 296 296 296 297 297 297 297 300 302 304
301 301 301 299 299 299 299 298 299 300 299 298 299 298 298 299 299 298 297 296 296 295 294 294 294 293 293 293 293 293 293 293 294 294 294 294 294 295 295 296 296 297 298 297 297 297 299 301 304
299 300 300 300 298 299 298 298 299 299 298 297 297 297 298 298 298 297 296 295 294 293 293 292 292 292 292 291 291 290 291 292 293 294 294 293 294 294 294 295 295 296 298 299 299 298 299 302 305
301 301 301 301 298 296 295 298 297 298 296 297 297 297 297 298 298 297 295 294 292 292 292 292 292 292 292 290 289 289 290 291 292 293 293 293 293 294 294 294 294 295 297 298 300 302 302 303 305
300 299 300 300 296 299 295 301 298 298 297 296 297 297 296 297 296 295 294 292 292 292 292 292 292 291 289 288 288 288 288 289 291 291 292 293 292 293 293 293 294 294 296 297 299 303 305 305 306
298 298 298 298 295 292 298 296 299 297 301 298 295 296 297 296 295 293 293 292 292 292 292 291 289 288 287 287 287 287 287 288 289 290 291 291 292 292 291 293 294 295 295 297 299 301 304 307 307
297 298 299 294 295 295 295 298 300 298 295 298 296 295 295 295 295 293 292 292 291 291 290 288 287 287 287 287 287 287 286 287 288 288 290 291 291 292 292 291 293 295 296 298 298 301 303 306 307
298 302 306 301 294 302 295 297 301 296 292 292 292 295 296 295 293 292 291 291 291 289 287 287 286 287 287 287 287 287 287 287 287 288 289 290 290 291 292 292 294 295 297 298 299 301 303 305 307
300 300 307 308 299 297 297 297 305 294 291 292 293 295 295 293 292 291 291 290 288 287 286 287 287 287 287 286 287 287 286 287 288 288 289 289 289 290 291 292 293 295 296 298 299 301 303 303 306
300 301 297 298 292 298 301 300 296 296 291 290 295 295 294 292 291 291 289 288 287 286 287 286 287 286 285 286 286 286 287 288 289 290 289 289 290 290 291 292 292 293 294 297 298 299 302 304 305
299 297 301 298 303 303 304 297 301 293 292 290 287 292 292 292 291 289 288 286 286 286 286 286 285 286 286 287 286 286 287 289 290 290 290 289 291 292 293 293 294 293 294 296 297 298 300 303 304
297 300 298 298 297 304 300 303 291 289 285 289 288 292 291 291 290 289 287 286 287 287 286 286 286 286 287 287 287 287 287 289 289 290 290 290 292 292 293 293 294 293 294 295 295 296 300 302 302
297 299 299 303 300 290 291 298 285 282 277 281 289 292 291 290 290 290 288 288 288 287 285 286 286 287 287 287 287 287 288 289 288 290 291 291 291 292 292 293 294 294 295 294 295 297 299 300 301
Wind_Speed
4 9 11 7 3 3 3 5 1 2 2 1 3 4 4 4 3 2 12 13 11 8 4 3 3 5 6 7 6 6 6 5 3 7 7 6 6 7 7 10 13 15 16 15 16 16 17 18 18
7 11 8 3 4 1 4 3 5 4 4 11 9 6 2 2 4 7 12 13 10 8 5 1 2 4 6 8 8 6 6 8 8 7 7 11 8 10 9 10 13 14 17 17 17 17 18 19 20
9 11 4 3 3 5 4 4 3 3 10 4 4 2 5 4 7 10 10 13 11 8 4 3 4 6 8 9 10 10 10 9 10 10 9 6 10 9 10 11 15 17 18 19 19 20 19 21 21
8 5 4 3 6 5 5 3 4 5 3 4 5 3 4 7 9 9 12 13 11 8 7 7 8 9 9 10 12 12 13 13 13 13 13 12 9 9 12 12 14 18 20 20 21 21 22 22 22
11 3 3 1 5 4 4 4 10 4 4 4 5 4 2 8 10 11 12 12 11 10 9 9 10 11 12 13 14 15 17 17 17 16 15 14 14 12 13 15 15 16 19 20 23 23 24 23 24
3 2 2 4 5 4 4 7 7 5 5 5 3 7 3 8 13 12 12 12 11 10 10 11 12 14 16 18 19 20 19 19 19 19 19 18 17 16 15 14 18 19 20 21 22 23 25 25 25
5 3 4 3 4 4 5 10 6 7 7 7 5 5 4 11 14 13 12 12 11 10 11 12 14 17 20 23 23 22 20 18 18 18 19 20 20 21 20 18 17 22 23 24 23 24 25 25 26
4 4 2 4 4 6 2 6 3 8 6 5 9 6 4 5 14 14 14 13 13 12 12 13 17 20 22 23 23 21 19 18 18 18 18 20 22 22 24 23 21 21 22 26 27 26 27 28 29
4 2 3 4 6 3 1 3 3 3 4 7 8 7 5 4 12 15 15 15 14 14 15 17 18 20 20 20 21 20 20 20 20 19 19 20 21 23 25 25 25 23 24 24 28 30 29 30 30
3 3 7 4 4 3 2 4 3 2 4 6 11 14 12 11 14 15 15 14 15 16 17 18 19 19 20 19 18 18 18 18 20 21 21 21 22 23 25 27 27 26 26 28 29 29 33 33 33
4 5 3 3 6 4 3 3 5 4 6 13 12 14 16 15 16 17 16 16 16 16 16 17 17 19 18 17 16 16 17 18 17 19 22 23 23 24 26 27 28 29 28 27 29 30 33 36 36
2 7 5 3 5 4 3 3 4 13 12 5 8 11 13 18 20 18 17 17 16 16 16 17 18 17 17 18 18 18 18 18 19 20 20 23 25 24 26 28 29 30 30 29 27 31 28 32 41
3 3 4 8 7 9 7 11 7 19 23 18 20 18 17 17 18 18 19 19 18 17 17 17 17 18 19 20 21 22 22 21 21 22 22 23 24 27 28 27 28 30 30 31 30 29 29 27 32
2 7 12 10 13 10 5 3 4 14 8 16 25 24 20 19 18 20 22 20 18 18 19 18 18 18 19 22 24 26 27 27 25 24 24 24 24 25 27 29 28 28 30 30 32 31 30 28 26
3 6 6 7 5 4 4 6 11 26 15 11 13 16 18 19 20 23 21 21 20 20 20 19 19 19 21 25 28 30 31 32 31 29 26 25 25 25 25 27 29 28 28 31 31 32 31 31 28
3 1 4 0 5 1 3 6 4 5 13 16 14 14 17 18 20 20 22 22 22 21 20 20 20 20 23 27 30 33 33 34 34 33 28 25 24 24 25 26 27 27 28 29 31 30 30 31 29
2 4 4 7 3 2 4 5 3 3 5 11 14 16 18 18 19 21 23 23 23 22 22 21 21 23 26 29 33 34 34 34 33 31 28 24 24 24 25 26 27 27 29 29 29 31 29 29 29
4 4 4 5 1 2 4 13 16 30 16 26 24 23 22 23 24 21 21 22 23 23 22 22 23 25 29 33 35 35 32 29 26 25 25 25 23 23 25 26 26 25 28 29 27 29 29 27 26
1 3 5 4 1 2 8 8 17 27 17 19 23 24 18 14 12 16 19 21 22 21 21 22 24 26 31 35 34 31 27 24 24 23 23 23 23 22 22 25 23 20 24 27 26 26 27 27 24
3 5 6 5 1 1 6 16 19 16 10 9 7 3 4 4 5 10 15 18 18 18 20 21 24 28 32 32 30 28 27 26 26 25 24 24 24 23 21 21 22 21 24 25 25 24 25 26 24
4 4 4 5 5 1 6 8 6 2 2 3 4 3 3 2 5 8 12 14 16 17 19 22 27 30 31 29 28 26 26 25 25 24 25 24 25 21 20 19 18 22 22 23 22 21 22 25 24
2 2 1 3 4 4 3 6 6 3 6 3 4 4 3 2 2 5 9 12 14 17 20 25 29 29 27 25 25 25 26 27 24 24 24 24 24 20 16 15 18 20 21 21 20 20 18 22 24
4 2 2 2 2 4 1 2 7 3 2 3 5 4 3 4 6 8 10 13 16 19 24 26 26 24 23 22 22 23 24 24 25 23 23 23 23 20 17 18 18 19 21 20 20 22 22 20 22
3 1 2 3 2 2 2 3 5 3 4 1 2 4 6 7 9 11 13 15 19 22 22 22 22 20 20 20 21 22 23 24 24 23 23 21 22 21 18 19 19 19 19 18 21 21 22 22 22
3 4 3 3 2 5 0 2 8 4 3 4 4 10 8 11 13 15 17 18 19 19 18 19 19 18 18 19 19 20 21 21 22 22 22 22 21 19 16 16 17 19 17 20 20 21 20 21 18
1 3 3 4 3 4 1 5 3 4 4 7 11 11 14 15 17 15 16 16 16 16 17 17 17 16 16 17 17 18 18 19 19 19 20 19 19 18 16 16 16 19 18 16 18 20 20 21 20
3 2 2 3 2 1 3 5 6 2 4 4 5 11 15 18 17 15 13 14 14 15 15 15 15 16 16 16 16 15 15 16 17 17 17 17 16 15 14 14 16 17 20 22 18 21 22 20 18
0 4 2 1 2 4 3 4 4 3 3 5 6 13 22 18 14 12 12 12 12 12 12 13 15 16 16 16 16 16 15 14 14 16 16 15 12 12 13 15 17 18 20 21 24 23 23 25 19
3 2 1 1 1 2 3 5 6 6 5 7 9 24 22 17 13 12 11 11 11 11 12 12 13 13 14 14 14 14 13 12 12 13 14 14 11 11 13 15 16 16 17 18 17 18 20 24 20
2 2 3 2 3 1 0 6 3 5 4 6 20 24 18 16 14 12 11 10 9 9 9 10 11 12 14 13 12 11 11 9 10 10 12 13 12 12 14 14 15 16 14 11 11 14 17 15 15
Wind_Direction
157 147 144 145 81 63 261 256 238 199 225 233 151 170 168 103 157 169 154 162 160 157 143 111 65 35 27 24 23 7 350 332 320 260 248 240 213 228 224 220 220 218 217 222 220 216 214 210 209
162 153 148 125 104 126 261 251 217 201 158 125 107 99 70 130 141 150 150 166 172 173 178 195 359 356 353 350 349 339 326 313 312 302 301 249 227 215 214 209 219 224 223 226 228 223 220 218 218
162 161 154 100 124 193 219 222 232 157 159 159 129 113 156 171 174 164 158 170 176 185 202 250 305 321 327 331 330 330 321 307 298 306 305 294 262 234 223 217 209 217 227 230 233 231 229 224 222
158 161 69 109 216 244 205 209 192 153 165 193 167 138 162 177 169 179 184 185 195 210 231 258 283 302 313 319 321 318 315 310 300 289 292 293 288 271 241 236 223 218 225 228 233 234 237 232 226
167 146 88 220 247 259 243 225 175 176 170 182 180 196 211 193 195 194 192 198 208 226 246 266 285 300 308 312 312 310 306 302 297 291 281 276 279 277 261 243 243 233 231 233 234 237 239 236 234
135 101 103 231 242 243 257 202 175 185 180 182 185 155 222 201 201 199 197 206 219 240 265 285 299 308 313 313 312 311 307 299 291 285 282 275 269 268 268 257 245 241 241 239 236 236 236 238 236
136 103 220 223 244 288 231 178 188 181 176 218 185 164 203 205 199 205 215 224 236 252 271 287 301 310 313 313 312 310 306 301 293 284 275 271 265 263 263 261 251 251 243 241 242 238 234 233 238
164 103 177 237 213 259 185 180 197 179 211 188 181 202 215 205 205 210 221 234 243 255 273 293 305 310 311 310 309 309 306 301 295 289 282 274 267 259 257 259 258 250 250 249 245 243 241 238 238
151 57 233 244 168 250 201 224 196 210 201 197 208 218 220 225 206 214 222 234 249 268 286 297 303 306 306 306 305 303 301 300 298 294 288 281 275 267 259 256 256 255 248 250 251 247 246 243 241
119 155 223 213 202 239 214 204 217 222 220 238 238 239 245 236 220 224 230 238 252 270 282 290 297 300 304 305 304 304 304 301 300 299 295 288 281 275 270 259 254 254 255 254 255 253 249 246 242
165 213 211 246 232 225 209 250 219 183 240 222 228 246 247 239 231 232 237 242 255 268 280 291 298 304 307 307 306 305 305 304 301 296 294 292 287 281 273 269 261 254 252 251 251 255 254 250 245
262 244 225 256 221 194 204 236 251 223 236 227 250 250 248 240 239 245 249 252 262 270 281 290 297 304 309 313 312 308 306 305 304 303 297 289 285 281 278 271 267 262 256 253 251 250 252 251 249
225 301 263 264 260 242 243 236 238 260 255 253 257 255 251 243 243 245 244 249 258 271 279 282 290 300 308 313 313 311 308 306 304 304 302 296 287 283 280 275 268 265 262 257 254 252 249 250 251
308 288 278 279 256 243 231 277 203 255 248 241 245 246 246 246 243 242 243 246 257 264 269 273 281 293 304 310 312 310 308 305 303 300 297 295 289 282 278 277 275 268 263 260 255 254 252 247 246
291 319 305 237 238 244 207 268 236 244 250 246 250 240 237 242 239 240 241 245 252 260 263 268 279 293 304 309 310 309 308 307 305 302 298 292 288 283 279 275 274 273 267 261 256 253 254 254 247
316 70 328 137 152 198 163 278 265 281 235 246 243 241 239 243 243 243 242 243 249 257 263 272 281 292 302 305 306 305 304 303 302 301 297 292 287 284 282 279 274 272 270 265 261 256 253 254 256
335 255 221 314 179 131 182 278 279 298 239 262 257 262 263 257 247 245 244 246 249 255 261 269 282 293 299 303 305 302 300 298 297 295 294 292 288 285 283 280 278 274 270 267 263 258 257 254 254
242 250 249 251 249 214 243 257 275 275 252 258 263 274 268 265 261 259 250 245 243 250 260 272 282 291 299 305 305 302 298 295 293 291 291 292 291 289 285 281 281 278 272 269 264 260 254 256 256
285 235 258 259 218 267 247 269 276 277 258 260 270 279 277 267 255 241 238 237 243 253 265 276 286 295 305 309 308 304 302 301 299 296 294 292 291 288 285 282 279 283 280 273 266 260 253 251 255
266 275 274 275 96 242 306 288 270 277 268 248 265 230 280 257 237 228 233 239 249 262 273 283 294 304 308 307 305 305 306 305 302 297 295 295 292 291 289 283 281 279 279 277 271 264 254 249 246
225 213 246 258 323 163 314 287 316 277 283 250 248 257 301 279 239 233 236 244 255 267 281 293 300 304 304 305 305 304 303 301 299 297 294 290 289 290 286 280 275 279 284 284 278 270 253 250 245
281 341 303 342 37 269 18 288 302 318 302 268 265 234 275 307 274 241 242 252 268 282 291 300 303 304 306 305 305 306 307 306 305 301 295 293 292 291 282 278 274 280 283 280 277 266 257 250 242
227 18 68 90 86 19 311 50 273 336 80 52 26 36 307 303 286 266 269 279 288 298 303 303 305 307 306 307 308 308 306 306 306 304 300 295 293 292 269 262 266 272 275 265 266 258 252 238 244
156 44 105 62 109 319 217 131 283 236 199 13 9 359 354 330 301 293 291 296 303 301 301 304 306 309 310 310 309 307 309 308 308 310 306 301 296 292 280 261 260 260 272 267 261 255 256 246 241
36 57 311 325 10 230 220 83 254 275 240 221 280 327 342 332 313 299 296 301 298 300 306 308 310 314 313 311 310 312 308 307 310 310 307 305 300 293 281 257 252 251 265 260 261 257 251 250 242
79 163 215 253 306 297 84 236 234 212 253 271 290 310 318 325 323 312 306 301 304 311 313 313 315 320 320 319 318 312 312 312 310 309 305 300 297 293 290 277 262 251 252 264 263 260 260 247 240
158 192 74 119 171 266 248 270 299 338 326 0 331 323 320 325 324 313 307 310 314 318 318 319 324 324 324 324 319 319 318 314 313 309 304 302 301 303 306 292 283 271 260 256 260 259 255 242 239
104 138 145 141 235 260 290 281 241 311 293 303 294 323 336 333 327 320 319 318 319 318 322 327 328 333 332 330 326 328 325 322 319 318 314 310 312 308 296 290 287 281 270 270 259 256 254 249 245
148 197 159 50 271 240 303 275 210 209 220 259 291 326 334 331 333 331 328 325 324 326 329 335 336 336 334 333 329 327 323 323 327 325 320 309 297 286 290 292 287 290 282 272 265 255 252 244 239
88 173 174 214 196 217 193 275 198 224 234 265 299 330 332 332 337 338 333 330 332 334 338 342 348 347 348 341 334 331 328 335 330 326 316 307 305 303 303 301 300 298 285 286 251 229 233 220 220